ONEWEB-0147, 47293

Orbit data source: Space-Track

ONEWEB-0147, 47293 is a payload satellite owned by One Web (UK) in LEO that was launched on Fri, 18 Dec 2020 UTC via a SOYUZ-2-1B launch vehicle from the Vostochny Cosmodrome (VOSTO). Payload-class satellites include a variety of spacecraft equipped with specific instruments for various scientific and technological missions. These include communications satellites like Starlink; space stations such as the ISS; scientific satellites like the Hubble; Earth observation satellites from companies like Planet Labs, Umbra, and HawkEye 360; GPS; miniature CubeSats for education and research; and military/defense satellites.

Loading next visibility...
Identifier
47293, 2020-100AM
Orbit
LEO
Country
Flag of UKUK
Related business
Manufacturer
One Web
Mission
Operational Commercial Communications
Bus & Motor
ARROW, Unknown motor
Mass
148 kg wet, ~140 kg dry
Launch date (UTC)
2020-12-18 (6 years ago)
Launch vehicle
SOYUZ-2-1B
Launch site
Vostochny Cosmodrome (VOSTO)
Object type
Payload
Rocket body
Debris
Shape & HBR
Trap Box + 2 Pan, 6.7 m
Radar Cross Section
3.464 m², Large (>1 m²)

Expand to show TLE details & history
Last TLE update: 2 days ago

TLE from 2 days ago
0 ONEWEB-0147
1 47293U 20100AM  26171.19699883  .00000085  00000-0  20023-3 0  9991
2 47293  87.8948 350.0441 0001669  93.8338 266.2982 13.12441018264961
Epoch: 2026-06-20T04:43Z
TLE epoch observation values (Epoch: 2026-06-20T04:43:40.698Z)
Latitude
0.00002°
Longitude
10.70944°
Altitude
1,216.704 km
Speed
7.246 km/s
True Right ascension
23h 20m 10s
True Declination
0° 00' 00"
Sunlit
Object was in daylight at epoch
Visualization orbit readout
Latitude
Unknown
Longitude
Unknown
Altitude
Unknown
Speed
Unknown
Apparent Right ascension
Unknown
Apparent Declination
Unknown
Sunlit
N/A
Visualization observer readout
Local Sidereal Time
23:18:37
Azimuth
Unknown
Elevation
Unknown
Doppler factor
Unknown
Orbital elements
Apogee altitude
1,212.114 km
Perigee altitude
1,209.581 km
Semi-major axis
7,588.985 km
Eccentricity
0.00017
Inclination
87.8948°
RAAN
350.0441°
Arg. of periapsis
93.8338°
True anomaly
266.27911°
Mean anomaly
266.2982°
Eccentric anomaly
266.28866°
Mean motion
3.28298 °/min
Orbital period
109.66 mins
BSTAR
0.00020023
Loading maneuver chart data...
Computing Atmospheric mass density...
Loading historical data...
Loading historical data...
Loading historical data...
Loading historical data...
Loading historical data...
Loading historical data...
Loading historical data...

Documentation

Showing up to 5 results
|